Hourly Data Report for September 07, 2017

All times are specified in Local Standard Time (LST). Add 1 hour to adjust for Daylight Saving Time where and when it is observed.

SATURNA ISLAND CS
BRITISH COLUMBIA

48°47'02.067" N
123°02'41.082" W
24.40 m
1017101
71473
WEZ

Download Data

Hourly Data (September 2017)
Hourly Data Report for September 7, 2017
Temp Definition
°C
Dew Point Temp Definition
°C
Rel Hum Definition
%
Wind Dir Definition
10's deg

Wind Spd Definition
km/h
Visibility Definition
km
Stn Press Definition
kPa
Hmdx Definition


Wind Chill Definition


Weather Definition


TIME
00:00 14.5 12.9 90 21 15   101.00     LegendNANA
01:00 15.3 13.1 86 21 14   101.01     LegendNANA
02:00 15.6 13.4 87 21 14   101.01     LegendNANA
03:00 15.3 13.2 87 23 17   101.00     LegendNANA
04:00 14.7 13.0 89 12 5   100.97     LegendNANA
05:00 14.4 12.6 89 24 9   100.98     LegendNANA
06:00 13.7 12.1 90 22 13   101.00     LegendNANA
07:00 14.6 13.0 90 20 14   100.98     LegendNANA
08:00 15.1 13.2 88 22 15   100.95     LegendNANA
09:00 17.5 13.9 80 22 11   100.95     LegendNANA
10:00 17.7 13.4 76 20 9   100.92     LegendNANA
11:00 20.2 13.9 67 22 11   100.93     LegendNANA
12:00 16.2 13.2 82 20 7   100.89     LegendNANA
13:00 18.4 14.0 76 19 9   100.86     LegendNANA
14:00 20.8 13.8 64 24 7   100.82     LegendNANA
15:00 20.2 13.8 67 23 6   100.83     LegendNANA
16:00 20.5 14.2 67 35 3   100.79     LegendNANA
17:00 18.3 13.1 72 28 1   100.81     LegendNANA
18:00 16.3 12.9 80 8 3   100.85     LegendNANA
19:00 17.8 15.3 86 35 11   100.82     LegendNANA
20:00 17.7 15.5 87 2 14   100.79     LegendNANA
21:00 17.1 14.9 87 22 9   100.90     LegendNANA
22:00 16.2 14.2 88 23 16   100.92     LegendNANA
23:00 16.2 14.2 88 21 13   100.94     LegendNANA

Notes on Data Quality.

Legend

  • E = Estimated
  • M = Missing
  • NA = Not Available
  • ‡ = Partner data that is not subject to review by the National Climate Archives
Date modified: